New Roads False River Regiona, LA

3:15 AM CDT on August 24, 2019 (GMT -0500)
False River

Weather History for KHZR - July, 2019

Change the Weather History Date:

Tuesday, July 16, 2019

  Actual Average (KBTR) Record (KBTR)
Temperature  
Mean Temperature 82 °F -  
Max Temperature 87 °F 92 °F 101 °F (1909)
Min Temperature 78 °F 72 °F 59 °F (1967)
Cooling Degree Days 18    
Growing Degree Days 32 (Base 50)    
Moisture  
Dew Point 78 °F    
Average Humidity 92    
Maximum Humidity 100    
Minimum Humidity 70    
Precipitation  
Precipitation 0.00 in - - ()
Sea Level Pressure  
Sea Level Pressure 30.06 in    
Wind  
Wind Speed 7 mph (South)    
Max Wind Speed 13 mph    
Max Gust Speed 18 mph    
Visibility 5 miles    
Events Fog , Rain    
Averages and records for this station are not official NWS values.
T = Trace of Precipitation, MM = Missing Value Source: NWS Daily Summary

Daily Weather History Graph

Daily Weather History Graph

Search for Another Location

Airport or City:

Astronomy

Jul. 16, 2019 Rise Set
Actual Time 6:13 AM CDT 8:09 PM CDT
Civil Twilight 5:46 AM CDT 8:36 PM CDT
Nautical Twilight 5:14 AM CDT 9:09 PM CDT
Astronomical Twilight 4:39 AM CDT 9:44 PM CDT
Moon 8:15 PM CDT (7/16) 5:53 AM CDT (7/16)
Length of Visible Light 14h 50m
Length of Day
13h 55m
Full, 100% of the Moon is Illuminated
Jul 16
Full
Jul 16
Full
Jul 24
Last Quarter
Jul 31
New
Aug 7
First Quarter

Hourly Weather History & Observations

Time (CDT) Temp. Heat Index Dew Point Humidity Pressure Visibility Wind Dir Wind Speed Gust Speed Precip Events Conditions
12:14 AM 78.8 °F - 77.0 °F 94% 30.04 in 2.5 mi SSE 6.9 mph - N/A   Scattered Clouds
12:34 AM 78.8 °F - 77.0 °F 94% 30.03 in 4.0 mi SSE 8.1 mph - N/A   Clear
12:55 AM 78.8 °F - 77.0 °F 94% 30.03 in 3.0 mi SSE 6.9 mph - N/A   Clear
1:14 AM 78.8 °F - 77.0 °F 94% 30.03 in 4.0 mi SSE 6.9 mph - N/A   Light Drizzle
1:34 AM 78.8 °F - 77.0 °F 94% 30.03 in 3.0 mi SSE 5.8 mph - N/A   Light Drizzle
1:55 AM 78.8 °F - 77.0 °F 94% 30.02 in 0.8 mi South 5.8 mph - N/A   Overcast
2:15 AM 78.8 °F - 78.8 °F 100% 30.02 in 2.0 mi SSE 5.8 mph - N/A Rain Light Rain
3:14 AM 78.8 °F - 78.8 °F 100% 30.02 in 0.8 mi SSE 4.6 mph - N/A   Overcast
3:35 AM 78.8 °F - 78.8 °F 100% 30.02 in 1.8 mi SSE 5.8 mph - N/A   Overcast
3:54 AM 78.8 °F - 78.8 °F 100% 30.03 in 1.5 mi SSE 5.8 mph - N/A   Light Drizzle
4:14 AM 78.8 °F - 78.8 °F 100% 30.02 in 4.0 mi South 5.8 mph - N/A Rain Light Rain
4:35 AM 78.8 °F - 78.8 °F 100% 30.03 in 1.0 mi SSE 4.6 mph - N/A Rain Light Rain
4:54 AM 78.8 °F - 78.8 °F 100% 30.04 in 0.5 mi South 4.6 mph - N/A Fog Fog
5:14 AM 78.8 °F - 78.8 °F 100% 30.05 in 0.5 mi South 4.6 mph - N/A Fog Fog
6:14 AM 78.8 °F - 77.0 °F 94% 30.06 in 1.0 mi South 4.6 mph - N/A   Mostly Cloudy
6:34 AM 78.8 °F - 77.0 °F 94% 30.06 in 0.8 mi SSE 3.5 mph - N/A   Mostly Cloudy
7:15 AM 78.8 °F - 78.8 °F 100% 30.07 in 3.0 mi South 4.6 mph - N/A   Mostly Cloudy
7:34 AM 78.8 °F - 78.8 °F 100% 30.08 in 1.5 mi SSE 3.5 mph - N/A   Light Drizzle
7:54 AM 78.8 °F - 78.8 °F 100% 30.09 in 1.0 mi South 5.8 mph - N/A Rain Rain
8:14 AM 80.6 °F 88.1 °F 78.8 °F 94% 30.09 in 3.0 mi South 8.1 mph - N/A Rain Light Rain
8:35 AM 80.6 °F 88.1 °F 78.8 °F 94% 30.09 in 0.2 mi SSE 10.4 mph - N/A Fog Fog
8:55 AM 80.6 °F 88.1 °F 78.8 °F 94% 30.09 in 0.2 mi South 6.9 mph - N/A Rain Light Rain
9:54 AM 84.2 °F 96.1 °F 78.8 °F 84% 30.10 in 0.5 mi SSE 8.1 mph - N/A Rain Light Rain
10:14 AM 84.2 °F 96.1 °F 78.8 °F 84% 30.10 in 0.2 mi SSE 10.4 mph - N/A   Haze
10:54 AM 86.0 °F 96.9 °F 77.0 °F 74% 30.10 in 0.2 mi South 11.5 mph 18.4 mph N/A   Haze
11:14 AM 87.8 °F 99.7 °F 77.0 °F 70% 30.10 in 0.5 mi SSE 12.7 mph - N/A   Haze
11:34 AM - - - N/A% 30.10 in 0.2 mi South 9.2 mph - N/A Fog Fog
12:15 PM - - - N/A% 30.09 in 0.2 mi South 8.1 mph - N/A Fog Fog
12:34 PM - - - N/A% 30.09 in 2.5 mi SSE 11.5 mph - N/A   Mostly Cloudy
1:14 PM - - - N/A% 30.08 in 0.2 mi SSW 6.9 mph 18.4 mph N/A Fog Fog
1:55 PM - - - N/A% 30.07 in 0.5 mi South 9.2 mph - N/A Fog Fog
2:14 PM - - - N/A% 30.07 in 0.5 mi South 10.4 mph 16.1 mph N/A   Overcast
2:35 PM - - - N/A% 30.06 in 2.0 mi South 10.4 mph 17.3 mph N/A   Scattered Clouds
2:54 PM - - - N/A% 30.05 in 1.5 mi South 6.9 mph - N/A   Mist
4:14 PM - - - N/A% 30.05 in 10.0 mi SSW 11.5 mph 16.1 mph N/A   Scattered Clouds
4:34 PM - - - N/A% 30.05 in 10.0 mi SSW 10.4 mph 17.3 mph N/A   Clear
4:54 PM - - - N/A% 30.05 in 10.0 mi SSW 11.5 mph - N/A   Scattered Clouds
5:34 PM - - - N/A% 30.03 in 10.0 mi SSW 12.7 mph 18.4 mph N/A   Scattered Clouds
5:56 PM - - - N/A% 30.03 in 10.0 mi South 8.1 mph 16.1 mph N/A   Scattered Clouds
6:14 PM - - - N/A% 30.03 in 10.0 mi SSW 10.4 mph - N/A   Clear
6:34 PM - - - N/A% 30.03 in 10.0 mi SSW 5.8 mph - N/A   Scattered Clouds
6:54 PM - - - N/A% 30.03 in 10.0 mi South 6.9 mph - N/A   Scattered Clouds
7:14 PM 87.8 °F 99.7 °F 77.0 °F 70% 30.02 in 10.0 mi South 6.9 mph - N/A   Mostly Cloudy
7:34 PM 84.2 °F 94.1 °F 77.0 °F 79% 30.02 in 10.0 mi South 6.9 mph - N/A   Clear
7:54 PM 84.2 °F 94.1 °F 77.0 °F 79% 30.03 in 10.0 mi South 6.9 mph - N/A   Clear
8:15 PM 82.4 °F 92.4 °F 78.8 °F 89% 30.03 in 10.0 mi South 3.5 mph - N/A   Clear
8:34 PM 82.4 °F 90.9 °F 77.0 °F 84% 30.04 in 10.0 mi South 3.5 mph - N/A   Clear
8:56 PM 82.4 °F 92.4 °F 78.8 °F 89% 30.05 in 10.0 mi Calm Calm - N/A   Clear
9:14 PM 80.6 °F 88.1 °F 78.8 °F 94% 30.05 in 10.0 mi Calm Calm - N/A   Clear
9:34 PM 80.6 °F 87.1 °F 77.0 °F 89% 30.06 in 10.0 mi South 4.6 mph - N/A   Clear
9:54 PM 80.6 °F 87.1 °F 77.0 °F 89% 30.07 in 10.0 mi South 4.6 mph - N/A   Clear
10:35 PM 80.6 °F 87.1 °F 77.0 °F 89% 30.09 in 10.0 mi Calm Calm - N/A   Scattered Clouds
10:56 PM 80.6 °F 87.1 °F 77.0 °F 89% 30.08 in 10.0 mi SSE 3.5 mph - N/A   Scattered Clouds
11:15 PM 78.8 °F - 77.0 °F 94% 30.09 in 10.0 mi Calm Calm - N/A   Clear
11:35 PM 78.8 °F - 77.0 °F 94% 30.09 in 10.0 mi SSE 4.6 mph - N/A   Clear
11:55 PM 78.8 °F - 77.0 °F 94% 30.09 in 10.0 mi SSE 4.6 mph - N/A   Clear